Salih Calhanoglu

Olheiro-Chefe - Istanbulspor
22 Fev 2028
Terça-feira
Processo

Personalidade

Adaptabilidade (11) Ambição (16) Controvérsia (12) Lealdade (15) Pressão (5) Profissionalismo (10) Espírito Esportivo (1) Temperamento (12)

Perfil

Estilo de Treinamento Democrático
Licença Continental C
Determinação 9
Gestão de Pessoas 11
Motivação 5
Disciplina 7
Satisfação no Trabalho
100%
Fadiga
0%
Função Olheiro-Chefe
Salário 50.0K p/s
Contrato 14.03.2028

Desempenho

Comportamento Bom
Eficácia do Treinamento
41%
Desenvolvimento do Jogador
40%
Prevenção de Lesões
45%
Implementação Tática
40%

Eventos Recentes

Negociação de contrato iniciada agora
Participou de uma reunião de recrutamento agora
Recomendou um alvo de transferência agora
Recomendou um alvo de transferência agora
Participou de uma reunião de recrutamento agora
Participou de uma reunião de recrutamento agora
Negociação de contrato iniciada 7d atrás
Negociação de contrato iniciada 7d atrás

Monitorando agora

76
Jogador Clube Status Habilidade Confiança Observado Última observação Último voto
Santiago Hezze Chaves Negociando 132 / 133 62% 1 01.01.2028 Aprovar
Mustafa Çeçenoğlu Ankaragucu Ativo 102 / 101 58% 1 02.08.2027 Aprovar
Dion Beljo Standard Liege Perdido 131 / 132 66% 1 01.06.2027 Aprovar
Jack McGlynn Stoke City Ativo 136 / 130 40% 4 29.05.2027 -
Isaiah Jones Luton Town Ativo 140 / 114 40% 5 29.05.2027 -
Xavier Amaechi Plymouth Argyle Ativo 115 / 103 40% 2 27.05.2027 -
Tshepang Moremi Orlando Pirates Ativo 125 / 108 40% 2 26.05.2027 Mais informações
Harry Leonard Peterborough United Ativo 96 / 106 40% 2 24.05.2027 -
Daniel Kyerewaa Reading Ativo 115 / 102 40% 2 22.05.2027 -
Phoenix Patterson Stevenage Ativo 108 / 103 40% 2 21.05.2027 -
Jesús Rodríguez Como Ativo 156 / 144 40% 1 21.05.2027 -
Finn Azaz Southampton Ativo 131 / 128 40% 2 20.05.2027 -
Florentino Luís Ipswich Town Ativo 150 / 138 40% 1 18.05.2027 -
Kasey McAteer Ipswich Town Ativo 136 / 125 40% 2 17.05.2027 -
Ahmed Kutucu Konyaspor Ativo 124 / 116 40% 1 17.05.2027 -
Othmane Maamma Watford Ativo 115 / 116 40% 3 16.05.2027 -
Tom Fellows Southampton Ativo 146 / 121 40% 5 14.05.2027 -
Georgie Gent Barnsley Ativo 127 / 104 40% 1 13.05.2027 -
Cian Ashford Cardiff City Ativo 123 / 130 40% 2 10.05.2027 -
Ali Ahmed Norwich City Ativo 128 / 121 40% 2 09.05.2027 -
Tyrese Campbell Sheffield United Ativo 129 / 128 40% 1 09.05.2027 -
Jack Currie Oxford United Ativo 121 / 136 40% 2 06.05.2027 -
Juan Mosquera Sheffield Wednesday Ativo 109 / 113 40% 1 06.05.2027 -
Mohamed Belloumi Hull City Ativo 147 / 131 40% 2 04.05.2027 Mais informações
Ollie Tanner Cardiff City Ativo 129 / 108 40% 1 29.04.2027 -
Giorgi Chakvetadze Watford Ativo 143 / 131 40% 2 25.04.2027 -
Tomáš Rigo Stoke City Ativo 142 / 140 40% 2 25.04.2027 -
Joseph Hungbo Wigan Athletic Ativo 124 / 102 40% 3 21.04.2027 -
Kane Wilson Milton Keynes Dons Ativo 104 / 115 40% 1 21.04.2027 -
Mduduzi Shabalala Kaizer Chiefs Ativo 106 / 115 40% 5 20.04.2027 -
Eom Ji-Sung Swansea City Ativo 121 / 111 40% 1 16.04.2027 -
Alex Robertson Cardiff City Ativo 129 / 128 40% 1 16.04.2027 -
Richard Koné Queens Park Rangers Ativo 123 / 113 40% 1 15.04.2027 -
Derensili Sanches Fernandes Huddersfield Town Ativo 112 / 130 40% 3 13.04.2027 -
Sayfallah Ltaief Cracovia Ativo 113 / 118 40% 3 05.04.2027 -
Jack Rudoni Coventry City Ativo 138 / 127 40% 2 05.04.2027 -
Jacques Ekomié Wrexham Ativo 141 / 142 40% 1 04.04.2027 -
Ilyas Ansah Hull City Ativo 148 / 129 40% 1 03.04.2027 -
Romano Schmid Frosinone Ativo 143 / 144 40% 2 01.04.2027 -
Ethan Williams Peterborough United Ativo 120 / 125 40% 1 01.04.2027 -
Marcelo Allende Mamelodi Sundowns Ativo 148 / 124 40% 2 30.03.2027 -
Ronald Swansea City Ativo 127 / 130 40% 3 27.03.2027 -
Stanley Mills Oxford United Ativo 136 / 132 40% 3 26.03.2027 -
Dávid Strelec Middlesbrough Ativo 156 / 143 40% 1 22.03.2027 -
Jason Knight Bristol City Ativo 134 / 119 40% 1 21.03.2027 -
David Turnbull Cardiff City Ativo 136 / 105 40% 2 17.03.2027 -
Oston O'runov Persepolis Ativo 128 / 113 40% 4 15.03.2027 -
Isaac Price West Bromwich Albion Ativo 122 / 137 40% 1 12.03.2027 -
Scott Twine Bristol City Ativo 125 / 130 40% 2 11.03.2027 -
Mathias Jørgensen Blackburn Rovers Ativo 108 / 112 40% 1 11.03.2027 -
Mikey Johnston West Bromwich Albion Ativo 121 / 118 40% 1 08.03.2027 -
Drissa Camara Gaziantep Ativo 124 / 135 40% 1 06.03.2027 -
Mandla Erasmus SuperSport United Ativo 123 / 119 40% 3 02.03.2027 -
Shea Charles Southampton Ativo 139 / 140 40% 1 28.02.2027 -
Kwadwo Baah Watford Ativo 123 / 136 40% 2 23.02.2027 -
Tommy Conway Middlesbrough Ativo 133 / 138 40% 1 20.02.2027 -
Joe Gelhardt Hull City Ativo 147 / 143 40% 2 19.02.2027 -
Oswin Appollis Orlando Pirates Ativo 113 / 133 40% 1 15.02.2027 -
Yusuf Özdemir Alanyaspor Ativo 115 / 118 40% 2 14.02.2027 -
Carlos Vicente Birmingham Ativo 153 / 129 40% 1 12.02.2027 -
Patrik Wålemark Lech Ativo 134 / 133 40% 1 11.02.2027 -
Morgan Whittaker Middlesbrough Ativo 125 / 116 40% 1 06.02.2027 -
Bali Mumba Huddersfield Town Ativo 126 / 129 40% 1 05.02.2027 -
Lukáš Červ Viktoria Plzen Ativo 134 / 137 40% 2 04.02.2027 Mais informações
Jack Diamond Stockport County Ativo 107 / 106 40% 1 03.02.2027 -
Saeid Sadeghi Foolad Negociando 109 / 109 66% 1 01.01.2027 Aprovar
Derry Murkin Derby County Ativo 114 / 141 40% 1 31.12.2026 Mais informações
Callum Doyle Wrexham Ativo 130 / 126 40% 1 08.12.2026 Mais informações
Jacob Bedeau Notts County Ativo 111 / 104 40% 1 17.11.2026 -
Milan van Ewijk Mansfield Town Ativo 115 / 122 40% 1 17.11.2026 -
Leandro Lozano Boca Juniors Ativo 132 / 110 40% 1 02.11.2026 -
Pedro Ramírez Deportivo Riestra Ativo 134 / 119 40% 1 02.11.2026 -
Rodrigo Huescas FC Copenhagen Ativo 136 / 128 40% 1 06.10.2026 -
Alexandr Chernikov Krasnodar Ativo 131 / 131 40% 1 06.10.2026 -
Jesper Ceesay Antalyaspor Ativo 114 / 107 55% 1 24.08.2026 Observar
José Arnáiz Granada Ativo 122 / 141 40% 1 01.08.2026 -